Regional Weather Roundup
Issued by NWS

Home | Current Version | Previous Version | Graphics & Text | Print | Product List | Glossary On
Versions: 1 2 3 4 5 6 7 8 9 10 11 12 13 14 15 16 17 18 19 20 21 22 23 24 25 26 27 28 29 30 31 32 33 34 35 36 37 38 39 40 41 42 43 44 45 46 47 48 49 50
000
ASUS43 KOAX 041210
RWRNE

WEATHER ROUNDUP FOR NEBRASKA
NATIONAL WEATHER SERVICE OMAHA NE
600 AM CST WED MAR 04 2015

NOTES: SATELLITE DATA IS BEING USED TO AUGMENT CLOUD COVER ABOVE
       12000 FEET.
       "FAIR" INDICATES FEW OR NO CLOUDS BELOW 12,000 FEET WITH NO
       SIGNIFICANT WEATHER AND/OR OBSTRUCTIONS TO VISIBILITY.

  * THESE STATIONS DO NOT REPORT WEATHER SUCH AS RAIN...SNOW OR FOG.

NEZ001>004-019>022-054>056-041300-
NEBRASKA PANHANDLE

CITY           SKY/WX    TMP DP  RH WIND       PRES   REMARKS
SCOTTSBLUFF    PTCLDY     8   3  80 NW8       30.13R WCI  -4
6HR MIN TEMP:   7; 6HR MAX TEMP:  14;

ALLIANCE       PTCLDY     5  -2  72 NW7       30.10R WCI  -7
6HR MIN TEMP:   1; 6HR MAX TEMP:  12;

CHADRON        PTCLDY    -2  -9  72 SW7       30.14S WCI -15
6HR MIN TEMP:  -2; 6HR MAX TEMP:   6;

KIMBALL        MOCLDY     3  -1  84 W7        30.06R WCI  -9
SIDNEY         CLOUDY     9   2  73 NW12      30.11R WCI  -6
6HR MIN TEMP:   9; 6HR MAX TEMP:  14; 6HR PCP: TRACE;

$$

NEZ057>060-069>072-079>082-041300-
SOUTHWEST NEBRASKA

CITY           SKY/WX    TMP DP  RH WIND       PRES   REMARKS
NORTH PLATTE   PTCLDY     7   5  91 NW3       30.18R
6HR MIN TEMP:   6; 6HR MAX TEMP:  16; 6HR PCP: TRACE;

IMPERIAL         N/A     14   7  73 NW5       30.17R WCI   6
6HR MIN TEMP:  14; 6HR MAX TEMP:  17; 6HR PCP:  0.02;

LEXINGTON      MOCLDY    10   7  87 W8        30.20R WCI  -2
MCCOOK         CLOUDY    17  12  80 CALM      30.21R
6HR MIN TEMP:  17; 6HR MAX TEMP:  20; 6HR PCP: TRACE;

OGALLALA       MOCLDY    11   6  81 W5        30.17R WCI   3
$$

NEZ005>010-023>029-035>040-094-041300-
NORTH CENTRAL NEBRASKA

CITY           SKY/WX    TMP DP  RH WIND       PRES   REMARKS
VALENTINE      CLEAR      4  -1  80 NW6       30.15R WCI  -7
6HR MIN TEMP:   4; 6HR MAX TEMP:  11;

AINSWORTH      CLEAR      6   0  76 W9        30.14R WCI  -8
BROKEN BOW     PTCLDY     9   3  77 W3        30.17R
6HR MIN TEMP:   8; 6HR MAX TEMP:  16;

O`NEILL        PTCLDY     7   2  78 W3        30.17S
ORD            PTCLDY     8   0  69 SW3       30.19R
6HR MIN TEMP:   7; 6HR MAX TEMP:  19;

THEDFORD       PTCLDY     9   4  81 W6        30.16R WCI  -1
$$

NEZ041-046>049-061>064-073>077-083>087-041300-
SOUTH CENTRAL NEBRASKA

CITY           SKY/WX    TMP DP  RH WIND       PRES   REMARKS
GRAND ISLAND   PTCLDY    11   6  81 W7        30.23R WCI   0
6HR MIN TEMP:  11; 6HR MAX TEMP:  17; 6HR PCP:  0.05;

AURORA         PTCLDY    10   6  85 W5        30.22R WCI   2
HASTINGS       PTCLDY    10   6  84 NW7       30.21R WCI  -1
6HR MIN TEMP:   9; 6HR MAX TEMP:  17; 6HR PCP: TRACE;

HEBRON         MOCLDY    14  11  87 NW3       30.25R
HOLDREGE       MOCLDY    13  10  85 NW6       30.20R WCI   4
KEARNEY *      PTCLDY    10   7  85 NW5       30.21R WCI   2
YORK           CLOUDY    10   9  92 NW8       30.22R WCI  -1
$$

NEZ011>018-030>034-042>045-041300-
NORTHEAST NEBRASKA

CITY           SKY/WX    TMP DP  RH WIND       PRES   REMARKS
NORFOLK        PTCLDY    14   4  64 W5        30.20R WCI   6
6HR MIN TEMP:  12; 6HR MAX TEMP:  18;

ALBION         PTCLDY    12   3  67 NW5       30.20R WCI   4
BLAIR          CLEAR     15   6  66 NW3       30.22R
COLUMBUS *     PTCLDY    12   0  57 NW5       30.23R WCI   4
FREMONT        FAIR      13   7  79 W3        30.24R
TEKAMAH        PTCLDY    14   6  70 CALM      30.25R
6HR MIN TEMP:  13; 6HR MAX TEMP:  19;

WAYNE          PTCLDY     8   4  80 CALM      30.22R
$$

NEZ050>053-065>068-078-088>093-041300-
SOUTHEAST NEBRASKA

CITY           SKY/WX    TMP DP  RH WIND       PRES   REMARKS
LINCOLN        MOCLDY    14  11  87 CALM      30.26R
6HR MIN TEMP:  10; 6HR MAX TEMP:  20; 6HR PCP:  0.03;

OMAHA EPPLEY   CLOUDY    15   7  70 N3        30.26R
6HR MIN TEMP:  14; 6HR MAX TEMP:  18; 6HR PCP:  0.01;

BEATRICE       PTCLDY     6   4  91 NW5       30.25R WCI  -3
FALLS CITY     CLOUDY    18  11  74 N9        30.25R WCI   7
6HR MIN TEMP:  18; 6HR MAX TEMP:  20; 6HR PCP: TRACE;

NEBRASKA CITY  CLEAR     13   9  83 NW5       30.24R WCI   5
PLATTSMOUTH    PTCLDY    12   9  87 W3        30.24R
$$

NEZ044-045-051>053-067-041300-
OMAHA AREA

CITY           SKY/WX    TMP DP  RH WIND       PRES   REMARKS
OMAHA EPPLEY   CLOUDY    15   7  70 N3        30.26R
6HR MIN TEMP:  14; 6HR MAX TEMP:  18; 6HR PCP:  0.01;

BLAIR          CLEAR     15   6  66 NW3       30.22R
FREMONT        FAIR      13   7  79 W3        30.24R
MILLARD        FAIR      17   8  69 CALM      30.25R
OFFUTT AFB     PTCLDY    14   9  82 CALM      30.24R
PLATTSMOUTH    PTCLDY    12   9  87 W3        30.24R
WAHOO          FAIR      14   8  78 CALM      30.24R
$$


USA.gov is the U.S. government's official web portal to all federal, state and local government web resources and services.